Zurück zum Katalog

STARLINK-37387

AktivKommunikationVLEO
NORAD 68973·PAYLOAD·🇺🇸 United States

Gestartet May 1, 2026 von Cape Canaveral Space Force Station

Loading…

Nächste Überflüge (nächste 24 Stunden)

TLE

AktuellSource: CelesTrak SupGP

Epoche: Sep 14, 2026, 23:18 UTC

1 68973C 26099Y   26257.97131944  .00001995  00000+0  58963-4 0  2574
2 68973  53.1574 101.2244 0001294  85.5218 200.0348 15.34381146    13

Verfolge STARLINK-37387 in Echtzeit mit AllMySat

Download on the App Store